Regional Weather Roundup
Issued by NWS

Home | Current Version | Previous Version | Graphics & Text | Print | Product List | Glossary On
Versions: 1 2 3 4 5 6 7 8 9 10 11 12 13 14 15 16 17 18 19 20 21 22 23 24 25 26 27 28 29 30 31 32 33 34 35 36 37 38 39 40 41 42 43 44 45 46 47 48 49 50
000
ASUS45 KBOU 290707
RWRCO

WEATHER ROUNDUP FOR COLORADO
NATIONAL WEATHER SERVICE DENVER/BOULDER CO
100 AM MDT SUN MAR 29 2015

NOTE: "FAIR" INDICATES FEW OR NO CLOUDS BELOW 12000 FEET WITH NO
SIGNIFICANT WEATHER AND/OR OBSTRUCTIONS TO VISIBILITY.

COZ001>005-013-030-031-290800-
...NORTHWEST COLORADO...

CITY           SKY/WX    TMP DP  RH WIND       PRES   REMARKS
CRAIG          PTCLDY    47  19  33 NE7       30.21R
HAYDEN         PTCLDY    45  16  31 W6        30.21R
MEEKER         PTCLDY    54  14  20 N15       30.22R
MOUNT WERNER   NOT AVBL
STEAMBOAT SPGS PTCLDY    43  29  58 CALM      30.22R
WALDEN         CLEAR     37  14  38 CALM      30.21R
$$

COZ006>008-011-290800-
...WEST CENTRAL VALLEYS...

CITY           SKY/WX    TMP DP  RH WIND       PRES   REMARKS
GRAND JUNCTION MOCLDY    48  23  37 CALM      30.10S
MONTROSE       PTCLDY    51  25  36 CALM      30.18R
EAGLE          CLOUDY    52  39  62 SE6       30.21R
RIFLE          CLOUDY    62  18  18 W10       30.15R
DELTA          PTCLDY    53  24  32 CALM      30.14R
NUCLA          PTCLDY    46  21  36 E13       30.21S
$$

COZ017>023-064>068-290800-
...SOUTHWEST COLORADO...

CITY           SKY/WX    TMP DP  RH WIND       PRES   REMARKS
DURANGO        CLEAR     40  22  48 CALM      30.22R
CORTEZ         CLEAR     38  20  48 NE6       30.19F
PAGOSA SPRINGS CLEAR     37  22  56 CALM      30.27S
TELLURIDE      NOT AVBL
WOLF CREEK PAS CLEAR     34  16  47 SW17G24   30.46S WCI  23
$$

COZ009-010-012-014-032>034-037-058>063-290800-
...CENTRAL COLORADO...

CITY           SKY/WX    TMP DP  RH WIND       PRES   REMARKS
ASPEN          CLOUDY    46  33  60 SW8       30.25R
BUENA VISTA    MOCLDY    44  32  63 NW7G17    30.24F
COPPER MTN     LGT SNOW  34  30  86 W22       30.39S WCI  22
BERTHOUD PASS  CLOUDY    27  21  80 W32G58    30.37F WCI  10
COTTONWOOD PAS MOCLDY    43  28  56 NW10G32   30.27F
GUNNISON       CLEAR     36  21  55 SW3       30.28S
KREMMLING      MOCLDY    46  16  29 W7        30.24R
LEADVILLE      CLOUDY    34  27  75 VRB5      30.32R WCI  30
SALIDA         MOCLDY    53  27  37 W16       30.29R
SUNLIGHT       CLOUDY    41  19  42 W3        30.39S
WILKERSON PASS PTCLDY    34  23  64 W20G32    30.33R WCI  22
$$

COZ069>075-290800-
...SAN LUIS VALLEY/SANGRE DE CRISTO MOUNTAINS...

CITY           SKY/WX    TMP DP  RH WIND       PRES   REMARKS
ALAMOSA        CLEAR     38  19  46 W9        30.21R
LA VETA PASS   CLEAR     39  18  41 SW9       30.29S
SAGUACHE       CLEAR     41  19  42 NW7       30.23R
$$

COZ035-036-038>040-290800-
...NORTHERN COLORADO FRONT RANGE...

CITY           SKY/WX    TMP DP  RH WIND       PRES   REMARKS
DENVER INTL AP PTCLDY    56  32  40 NW10      30.03R
DMNS CITY PARK   N/A     58  30  34 N6        30.03S
AURORA         PTCLDY    53  30  42 W7        30.05R
FRONT RANGE AP PTCLDY    57  32  38 NW5       30.05R
ERIE MUNI ARPT PTCLDY    53  31  43 CALM      30.02R
BOULDER MUN AP PTCLDY    59  30  33 E10G16    30.00R
CENTENNIAL     PTCLDY    54  29  38 W7        30.06R
BROOMFIELD     PTCLDY    61  23  23 W20G33    30.04R
FORT COLLINS   PTCLDY    54  27  35 NW7       30.02R
LONGMONT       PTCLDY    58  30  34 W3        30.03R
$$

COZ041-046-047-076>085-087-088-290800-
...PIKES PEAK/PALMER DIVIDE AND SOUTHERN FOOTHILLS...

CITY           SKY/WX    TMP DP  RH WIND       PRES   REMARKS
COLO. SPRINGS  PTCLDY    52  23  32 N9        30.08R
A. F. ACADEMY  CLEAR     49  22  34 N9        30.10R
ELLICOTT       CLEAR    N/A N/A N/A N15       30.05R
FALCON         CLEAR     52  24  33 NW13      30.12S
FORT CARSON    CLEAR     56  23  28 W9        30.04R
LIMON          PTCLDY    46  31  55 W9        30.01S
MONUMENT HILL  CLEAR     46  28  49 NW14      30.11R
TRINIDAD       CLEAR     54  24  31 W15       30.04S
$$

COZ042>045-048>051-090-091-290800-
...NORTHEAST COLORADO...

CITY           SKY/WX    TMP DP  RH WIND       PRES   REMARKS
GREELEY ARPT   PTCLDY    48  25  40 N9        29.99R
AKRON          CLOUDY    62  29  28 NW17      29.96R
BURLINGTON     MOCLDY    56  27  32 NW10      29.93R
WRAY           CLOUDY    68  27  21 NW17      29.89S
STERLING       CLOUDY    61  28  29 N23G32    29.95R
HOLYOKE        NOT AVBL
FORT MORGAN    CLOUDY    58  28  32 NW17      29.99R
$$

COZ086-089-092>099-290800-
...SOUTHEAST COLORADO...

CITY           SKY/WX    TMP DP  RH WIND       PRES   REMARKS
PUEBLO         CLEAR     56  23  27 NW13      29.97R
LA JUNTA       CLEAR     53  28  38 W14       29.92R
LAMAR          CLEAR     50  27  40 W7        29.86R
SPRINGFIELD      N/A     48  27  44 SW14      29.95R
$$


USA.gov is the U.S. government's official web portal to all federal, state and local government web resources and services.